Location: Bottens
(46.6171°N, 6.6605°E)
Time: 14:55:42
(UTC+00:00)

NOSS 3-2 (A) - Pass Details

Date: 20 June 2021
Orbit: 774 x 1433 km, 63.4° (Epoch: 17 July)

Event Time Altitude Azimuth Distance (km) Brightness Sun altitude
Rises 02:21:45 0° 320° (NW) 3,915 6.8 -10.5°
Reaches altitude 10° 02:24:17 10° 323° (NW) 3,044 6.3 -10.2°
Maximum altitude 02:31:43 74° 48° (NE) 1,325 4.4 -9.4°
Drops below altitude 10° 02:40:14 10° 134° (SE) 3,456 6.4 -8.4°
Sets 02:43:16 0° 136° (SE) 4,471 6.9 -8.1°
